METOP-B

Last updated on Wed Sep 09 2026 00:02:40 GMT+0000 (Coordinated Universal Time)

1 38771U 12049A 26251.60241516 .00000053 00000+0 44104-4 0 9997 2 38771 98.6428 301.4061 0003456 102.3258 257.8307 14.21457847725110
UTC large
Height (km)
Speed (km/s)
/
Latitude / Longitude
Inclination (degrees)
Orbital Period (minutes)
Azimuth
Elevation
Range (km)
Doppler Factor

Next 0 passes for location: London (51.5072 / 0.1276)

No passes found over London.
METOP-B